[[{"header":{"parameterUnit":"m.s-1","parameterCategory":1,"la1":30.2991,"la2":30.254,"lo1":-89.0895,"lo2":-89.0444,"dy":0.0017,"dx":0.0017,"nx":28,"ny":28,"refTime":"2024-11-28T03:00:00:Z","depth":0,"parameterNumber":2,"parameterNumberName":"U-component_of_WINDS"},"data":[0,0,0,0,0,0,0,0,0,0,0,0,0,0,0,0,0,0,0,0,0,0,0,0,0,0,0,0,0,0,0,0,0,0,0,0,0,0,0,0,0,0,0,0,0,0,0,0,0,0,0,0,0,0,0,0,0,0,3.2377,3.2378,0,3.2469,3.247,3.2471,3.2461,3.246,3.2458,3.2457,3.2555,3.2559,3.2563,0,0,0,0,0,0,0,0,0,0,0,0,0,3.2198,3.2202,3.2377,3.2378,3.238,3.2469,3.247,3.2471,3.2461,3.246,3.2458,3.2456,3.2554,3.2558,3.2563,0,0,0,0,0,0,0,0,0,0,0,0,0,3.2282,3.2203,3.2377,3.2385,3.2387,3.2468,3.247,3.2472,3.2462,3.246,3.2457,3.2455,3.2552,3.2558,3.2564,3.2644,0,0,3.2582,3.2585,0,0,0,0,0,0,0,0,3.2277,3.2288,3.2383,3.2385,3.2387,3.2451,3.2443,3.253,3.2462,3.2434,3.2457,3.2454,3.2523,3.2531,3.2553,3.2649,3.2653,3.2583,3.2586,3.2589,3.259,0,0,0,0,0,0,0,3.2271,3.2284,3.2414,3.2384,3.2387,3.2386,3.2395,3.2459,3.2489,3.2436,3.2435,3.2446,3.2523,3.2547,3.2555,3.2655,3.2582,3.2588,3.2591,3.2594,3.2823,3.2825,0,0,0,0,0,0,3.2263,3.228,3.2411,3.2416,3.2325,3.2391,3.2401,3.2433,3.2489,3.2495,3.2448,3.2445,3.2538,3.2548,3.2559,3.2657,3.2589,3.2594,3.2598,3.282,3.2823,3.2826,0,0,0,0,0,0,3.2259,3.2275,3.2407,3.2348,3.2365,3.2396,3.2432,3.2436,3.246,3.2498,3.2503,3.2466,3.2537,3.255,3.2623,3.266,3.2597,3.2602,3.2817,3.2821,3.2825,3.2854,0,0,0,0,0,0,3.2254,3.2273,3.2303,3.2349,3.2368,3.2469,3.2434,3.2439,3.2469,3.2467,3.2517,3.2523,3.2536,3.2614,3.2629,3.2667,3.2607,3.2814,3.2819,3.2823,3.285,3.2858,3.2866,0,0,0,0,0,3.2248,3.2308,3.2304,3.232,3.2405,3.2471,3.2482,3.2495,3.2472,3.2503,3.2528,3.2521,3.2654,3.2622,3.2638,3.2679,3.2812,3.2818,3.2823,3.2846,3.2857,3.2865,0,0,0,0,0,0,3.2267,3.2314,3.2311,3.2388,3.2425,3.2469,3.2508,3.2505,3.255,3.2546,3.2562,3.2573,3.2647,3.267,3.2634,3.2761,3.273,3.2739,3.2742,3.2752,3.276,3.2753,3.2612,0,0,0,0,0,3.228,3.2328,3.2367,3.2432,3.245,3.2476,3.2505,3.2512,3.2552,3.2568,3.2598,3.2638,3.2689,3.2722,3.2771,3.2854,3.2865,3.289,3.2898,3.2904,3.2912,3.2958,3.297,3.2845,3.2845,3.2844,0,0,3.2308,3.234,3.2369,3.2436,3.2466,3.2517,3.2489,3.2544,3.2582,3.2577,3.2647,3.267,3.2717,3.2795,3.2831,3.2817,3.2949,3.2911,3.2916,3.292,3.2965,3.2977,3.2988,3.2848,3.2848,3.2847,0,0,3.2385,3.2413,3.247,3.2501,3.2546,3.2563,3.2576,3.2621,3.2636,3.2706,3.2704,3.275,3.2837,3.287,3.2899,3.2989,3.2985,3.3005,3.3046,3.3091,3.3101,3.311,3.3143,3.3154,3.3013,3.3013,3.3013,0,3.2414,3.2488,3.25,3.2555,3.2585,3.2582,3.264,3.267,3.2729,3.2751,3.2734,3.2844,3.2874,3.2961,3.2983,3.3006,3.3023,3.2999,3.3098,3.3107,3.3116,3.3147,3.316,3.3015,3.3015,3.3014,3.3014,0,3.2523,3.2575,3.2615,3.2671,3.2706,3.2763,3.2785,3.2819,3.2823,3.2842,3.2915,3.2952,3.3009,3.303,3.3035,3.3118,3.3108,3.3095,3.3064,3.313,3.316,3.3172,3.3018,3.3017,3.3017,3.3016,0,0,3.2613,3.2675,3.269,3.2716,3.2766,3.2807,3.2865,3.2919,3.2948,3.299,3.3039,3.3113,3.3102,3.3134,3.3143,3.3183,3.3253,3.3165,3.3166,3.318,3.3347,3.3357,3.337,3.3251,3.3253,3.3255,3.3344,0,3.2694,3.2794,3.2807,3.2896,3.2944,3.2943,3.2993,3.303,3.305,3.3096,3.3119,3.3171,3.3151,3.3171,3.321,3.3236,3.3287,3.323,3.3298,3.33,3.3286,3.3386,3.3396,3.3477,3.3355,3.3357,3.3359,0,3.2802,3.2846,3.2939,3.2983,3.3004,3.3049,3.31,3.3143,3.3186,3.3198,3.3235,3.3239,3.33,3.3268,3.3353,3.3314,3.3343,3.336,3.3364,3.337,3.3333,3.3395,3.3504,3.3516,3.3377,3.3376,3.3374,0,3.2859,3.2941,3.3008,3.303,3.3083,3.3115,3.3139,3.3179,3.3212,3.3257,3.3279,3.3331,3.336,3.3402,3.3421,3.3395,3.3505,3.3474,3.3518,3.3518,3.3541,3.3539,3.3655,3.356,3.356,3.3559,3.3559,0,3.2948,3.3005,3.3034,3.3075,3.3139,3.3155,3.3219,3.3242,3.3279,3.3326,3.3328,3.3372,3.3395,3.3443,3.3459,3.3528,3.3541,3.3553,3.3557,3.3553,3.3551,3.3572,3.3566,3.3563,3.3562,3.3561,3.3561,0,3.3021,3.3043,3.3115,3.316,3.3173,3.3219,3.3258,3.3298,3.3318,3.3378,3.3393,3.3425,3.3482,3.3505,3.3575,3.3586,3.3665,3.3664,3.365,3.3651,3.3693,3.3689,3.3827,3.3846,3.3738,3.3739,3.374,0,3.3076,3.312,3.317,3.3201,3.3225,3.3275,3.3308,3.3326,3.336,3.3413,3.3448,3.3504,3.355,3.3642,3.3673,3.3727,3.3727,3.3772,3.3735,3.373,3.3728,3.3725,3.373,3.3778,3.3779,3.378,3.3781,0,3.3172,3.3181,3.3227,3.3277,3.3316,3.3357,3.3397,3.3423,3.3447,3.3486,3.3543,3.3579,3.3651,3.3708,3.3764,3.379,3.3791,3.3792,3.3805,3.3802,3.3791,3.3798,3.3668,3.3789,3.3788,3.3788,3.3787,3.3787,3.3238,3.3277,3.3318,3.337,3.3402,3.344,3.348,3.3505,3.3553,3.3612,3.362,3.3682,3.3726,3.3801,3.383,3.388,3.3869,3.3888,3.3893,3.3897,3.39,3.3784,3.3891,3.3891,3.389,3.389,3.389,0,3.3333,3.336,3.3408,3.3463,3.3505,3.35,3.3545,3.358,3.3634,3.3674,3.372,3.3787,3.3842,3.3878,3.3934,3.3967,3.3969,3.3982,3.3979,3.3985,3.3906,3.3889,3.3979,3.3979,3.3979,3.3979,3.3979,3.3979,3.3388,3.3454,3.3468,3.3551,3.3578,3.3637,3.3663,3.3699,3.3731,3.3805,3.3851,3.3873,3.3912,3.3972,3.4023,3.4032,3.4053,3.4066,3.4075,3.4,3.3991,3.3982,3.3966,3.4071,3.4071,3.415,3.415,3.4151]},{"header":{"parameterUnit":"m.s-1","parameterCategory":1,"la1":30.2991,"la2":30.254,"lo1":-89.0895,"lo2":-89.0444,"dy":0.0017,"dx":0.0017,"nx":28,"ny":28,"refTime":"2024-11-28T03:00:00:Z","depth":0,"parameterNumber":3,"parameterNumberName":"V-component_of_WINDS"},"data":[0,0,0,0,0,0,0,0,0,0,0,0,0,0,0,0,0,0,0,0,0,0,0,0,0,0,0,0,0,0,0,0,0,0,0,0,0,0,0,0,0,0,0,0,0,0,0,0,0,0,0,0,0,0,0,0,0,0,2.9385,2.9386,0,2.9462,2.9463,2.9464,2.9466,2.9465,2.9464,2.9463,2.9545,2.9548,2.9551,0,0,0,0,0,0,0,0,0,0,0,0,0,2.9241,2.9244,2.9385,2.9386,2.9387,2.9462,2.9463,2.9464,2.9466,2.9465,2.9464,2.9463,2.9544,2.9548,2.9551,0,0,0,0,0,0,0,0,0,0,0,0,0,2.931,2.9245,2.9384,2.9397,2.9398,2.9462,2.9463,2.9464,2.9466,2.9465,2.9464,2.9462,2.9543,2.9547,2.9552,2.9609,0,0,2.9566,2.9568,0,0,0,0,0,0,0,0,2.9306,2.9315,2.9394,2.9396,2.9398,2.9453,2.9443,2.9513,2.9467,2.9441,2.9463,2.9462,2.9516,2.9522,2.954,2.9613,2.9616,2.9566,2.9569,2.9571,2.9572,0,0,0,0,0,0,0,2.9301,2.9312,2.9415,2.9395,2.9398,2.9399,2.9407,2.9456,2.9485,2.9443,2.9443,2.9452,2.9517,2.9536,2.9542,2.9617,2.9566,2.957,2.9573,2.9575,2.9742,2.9744,0,0,0,0,0,0,2.9294,2.9308,2.9413,2.9418,2.9347,2.9403,2.9412,2.9437,2.9485,2.9491,2.9453,2.9452,2.9529,2.9537,2.9545,2.9616,2.9571,2.9575,2.9578,2.974,2.9743,2.9744,0,0,0,0,0,0,2.9291,2.9303,2.941,2.9363,2.9377,2.9407,2.9435,2.9439,2.9458,2.9493,2.9498,2.9467,2.9528,2.9539,2.9593,2.9619,2.9577,2.9582,2.9739,2.9741,2.9743,2.9758,0,0,0,0,0,0,2.9286,2.9302,2.9323,2.9363,2.9379,2.9456,2.9436,2.9442,2.9466,2.9465,2.9507,2.9513,2.9527,2.9586,2.9598,2.9624,2.9585,2.9736,2.974,2.9743,2.9755,2.9761,2.9765,0,0,0,0,0,2.9281,2.9324,2.9324,2.9337,2.9406,2.9457,2.9466,2.9481,2.9468,2.949,2.9512,2.9512,2.9614,2.9592,2.9605,2.9633,2.9735,2.9739,2.9742,2.9753,2.976,2.9765,0,0,0,0,0,0,2.9287,2.933,2.933,2.9387,2.9419,2.9457,2.9486,2.9488,2.9524,2.9522,2.954,2.9549,2.9604,2.9624,2.9598,2.9692,2.9673,2.9679,2.9677,2.9683,2.9688,2.9683,2.9589,0,0,0,0,0,2.9295,2.9332,2.9368,2.9415,2.943,2.9455,2.9478,2.9487,2.9521,2.9534,2.956,2.9594,2.9633,2.9659,2.9698,2.9758,2.9768,2.9784,2.9789,2.9793,2.9799,2.9833,2.9841,2.9757,2.9757,2.9757,0,0,2.9312,2.934,2.9362,2.9417,2.9442,2.9481,2.9467,2.9508,2.9538,2.9541,2.9594,2.9614,2.9653,2.9711,2.9738,2.9729,2.9824,2.9798,2.98,2.9804,2.9838,2.9846,2.9853,2.9759,2.9759,2.9758,0,0,2.9363,2.9387,2.9429,2.9455,2.9493,2.951,2.952,2.9559,2.9572,2.9626,2.9629,2.9665,2.9732,2.976,2.9783,2.9845,2.9846,2.9857,2.9883,2.9917,2.9923,2.9929,2.9953,2.9961,2.9862,2.9862,2.9862,0,2.9379,2.9437,2.9451,2.9493,2.9518,2.9521,2.9565,2.9589,2.9639,2.9656,2.9645,2.9731,2.9757,2.9822,2.9837,2.9855,2.9869,2.9852,2.9921,2.9927,2.9933,2.9956,2.9964,2.9863,2.9863,2.9863,2.9863,0,2.9456,2.9497,2.9526,2.9573,2.9601,2.9644,2.9665,2.9692,2.9698,2.9716,2.9771,2.9802,2.9848,2.9864,2.9871,2.993,2.9924,2.9917,2.9899,2.9942,2.9964,2.9972,2.9865,2.9865,2.9864,2.9864,0,0,2.9514,2.9567,2.9578,2.96,2.9643,2.9675,2.9718,2.9762,2.9785,2.9818,2.9856,2.9913,2.9908,2.9934,2.9944,2.9973,3.0022,2.9963,2.9964,2.9974,3.0091,3.0097,3.0106,3.0022,3.0024,3.0025,3.0088,0,2.957,2.9646,2.966,2.9727,2.9765,2.977,2.9807,2.9838,2.9856,2.9892,2.9912,2.9953,2.9941,2.9957,2.9986,3.0009,3.0046,3.0005,3.0059,3.0061,3.005,3.0117,3.0123,3.0181,3.0096,3.0098,3.0099,0,2.9646,2.9681,2.9752,2.979,2.9807,2.984,2.9882,2.9916,2.9951,2.9962,2.9992,2.9998,3.0045,3.0024,3.0089,3.0061,3.0083,3.0098,3.0101,3.0107,3.0083,3.0127,3.02,3.0209,3.0112,3.0111,3.011,0,2.9682,2.9747,2.9798,2.9817,2.9862,2.9886,2.9906,2.994,2.9966,3.0003,3.002,3.0061,3.0084,3.0117,3.0136,3.0118,3.02,3.018,3.0212,3.0211,3.0229,3.0228,3.0308,3.0242,3.0242,3.0242,3.0242,0,2.9744,2.9788,2.9815,2.9847,2.9896,2.9912,2.996,2.9981,3.0011,3.0047,3.0053,3.0087,3.0109,3.0147,3.0161,3.0214,3.0224,3.0235,3.0239,3.0235,3.0234,3.0251,3.0248,3.0244,3.0244,3.0243,3.0243,0,2.9793,2.9813,2.9869,2.9908,2.9919,2.9953,2.9987,3.0018,3.0036,3.0082,3.0094,3.0122,3.0167,3.0188,3.0244,3.0254,3.0313,3.0314,3.0301,3.0303,3.0334,3.0331,3.0429,3.0443,3.0366,3.0367,3.0368,0,2.9832,2.9866,2.9908,2.9932,2.9953,2.9992,3.0018,3.0036,3.0063,3.0106,3.0133,3.0177,3.0214,3.0285,3.0312,3.0355,3.0357,3.0388,3.0363,3.0359,3.0359,3.0357,3.0361,3.0393,3.0394,3.0394,3.0395,0,2.99,2.9908,2.9945,2.9986,3.0017,3.005,3.0082,3.0102,3.0125,3.0155,3.0201,3.0229,3.0286,3.0331,3.0376,3.0398,3.0401,3.0402,3.0412,3.041,3.0401,3.0408,3.0315,3.04,3.04,3.0399,3.0399,3.0399,2.9946,2.9976,3.001,3.0052,3.0078,3.0109,3.014,3.0162,3.02,3.0247,3.0255,3.0304,3.0339,3.0399,3.0423,3.0462,3.0455,3.0469,3.0473,3.0476,3.0479,3.0394,3.047,3.047,3.047,3.047,3.047,0,3.0014,3.0037,3.0074,3.012,3.0153,3.0151,3.0188,3.0216,3.0258,3.0291,3.0327,3.038,3.0423,3.0453,3.0498,3.0523,3.0526,3.0535,3.0534,3.0539,3.0482,3.0469,3.0532,3.0532,3.0532,3.0532,3.0532,3.0532,3.0054,3.0106,3.0118,3.0183,3.0206,3.0253,3.0274,3.0302,3.0329,3.0387,3.0423,3.0442,3.0474,3.0521,3.0562,3.0569,3.0586,3.0595,3.0603,3.0549,3.0543,3.0537,3.0525,3.0598,3.0598,3.0657,3.0657,3.0658]}]]